TimeEST,TemperatureF,Dew PointF,Humidity,Sea Level PressureIn,VisibilityMPH,Wind Direction,Wind SpeedMPH,Gust SpeedMPH,PrecipitationIn,Events,Conditions,WindDirDegrees,DateUTC
12:16 AM,41.0,39.2,93,30.04,10.0,NNW,9.2,-,N/A,,Overcast,340,2013-11-03 04:16:00
12:25 AM,41.0,39.2,93,30.04,10.0,NNW,9.2,-,N/A,,Overcast,340,2013-11-03 04:25:00
12:52 AM,41.0,39.9,96,30.06,10.0,NNW,6.9,-,N/A,,Overcast,330,2013-11-03 04:52:00
1:52 AM,41.0,39.0,93,30.08,10.0,NNW,9.2,-,N/A,,Overcast,340,2013-11-03 05:52:00
1:25 AM,39.2,39.2,100,30.08,10.0,NNW,4.6,-,N/A,,Overcast,330,2013-11-03 06:25:00
1:42 AM,39.2,39.2,100,30.08,10.0,NW,4.6,-,N/A,,Overcast,320,2013-11-03 06:42:00
1:52 AM,39.9,39.0,97,30.11,10.0,NW,4.6,-,N/A,,Overcast,310,2013-11-03 06:52:00
2:52 AM,39.0,37.9,96,30.13,10.0,NNW,8.1,-,N/A,,Overcast,330,2013-11-03 07:52:00
3:52 AM,37.0,37.0,100,30.15,10.0,NNW,4.6,-,N/A,,Overcast,330,2013-11-03 08:52:00
4:52 AM,37.0,35.1,93,30.19,10.0,WNW,5.8,-,N/A,,Overcast,300,2013-11-03 09:52:00
5:52 AM,35.1,33.1,92,30.21,10.0,NW,3.5,-,N/A,,Mostly Cloudy,320,2013-11-03 10:52:00
6:05 AM,35.6,33.8,93,30.19,10.0,NW,3.5,-,N/A,,Mostly Cloudy,310,2013-11-03 11:05:00
6:30 AM,33.8,33.8,100,30.20,10.0,NW,3.5,-,N/A,,Partly Cloudy,320,2013-11-03 11:30:00
6:52 AM,35.1,33.1,92,30.24,10.0,NW,4.6,-,N/A,,Clear,310,2013-11-03 11:52:00
7:52 AM,36.0,34.0,93,30.28,10.0,NW,3.5,-,N/A,,Clear,310,2013-11-03 12:52:00
8:52 AM,41.0,37.0,86,30.31,10.0,North,4.6,-,N/A,,Clear,10,2013-11-03 13:52:00
9:52 AM,45.0,35.1,68,30.31,10.0,NE,8.1,-,N/A,,Clear,40,2013-11-03 14:52:00
10:18 AM,44.6,33.8,66,30.30,10.0,ENE,9.2,-,N/A,,Mostly Cloudy,70,2013-11-03 15:18:00
10:52 AM,44.1,33.1,65,30.34,10.0,ENE,5.8,-,N/A,,Mostly Cloudy,60,2013-11-03 15:52:00
11:52 AM,46.0,33.1,61,30.34,10.0,Variable,4.6,-,N/A,,Mostly Cloudy,0,2013-11-03 16:52:00
12:45 PM,48.2,33.8,58,30.32,10.0,North,5.8,-,N/A,,Overcast,360,2013-11-03 17:45:00
12:52 PM,48.0,33.1,56,30.34,10.0,NNW,5.8,-,N/A,,Mostly Cloudy,340,2013-11-03 17:52:00
1:52 PM,48.9,30.9,50,30.34,10.0,Calm,Calm,-,N/A,,Clear,0,2013-11-03 18:52:00
2:52 PM,48.0,30.0,50,30.34,10.0,SSE,4.6,-,N/A,,Clear,160,2013-11-03 19:52:00
3:52 PM,48.0,32.0,54,30.35,10.0,NE,4.6,-,N/A,,Mostly Cloudy,40,2013-11-03 20:52:00
4:52 PM,46.0,33.1,61,30.36,10.0,NE,4.6,-,N/A,,Clear,40,2013-11-03 21:52:00
5:52 PM,42.1,33.1,70,30.38,10.0,NE,3.5,-,N/A,,Clear,50,2013-11-03 22:52:00
6:52 PM,39.0,32.0,76,30.39,10.0,NE,6.9,-,N/A,,Clear,40,2013-11-03 23:52:00
7:52 PM,37.0,32.0,82,30.42,10.0,NE,5.8,-,N/A,,Clear,50,2013-11-04 00:52:00
8:52 PM,36.0,30.0,79,30.42,10.0,ENE,4.6,-,N/A,,Clear,70,2013-11-04 01:52:00
9:52 PM,36.0,30.0,79,30.42,10.0,East,8.1,-,N/A,,Clear,80,2013-11-04 02:52:00
10:52 PM,35.1,28.9,78,30.44,10.0,East,8.1,-,N/A,,Clear,100,2013-11-04 03:52:00